TimeEDT,TemperatureF,Dew PointF,Humidity,Sea Level PressureIn,VisibilityMPH,Wind Direction,Wind SpeedMPH,Gust SpeedMPH,PrecipitationIn,Events,Conditions,WindDirDegrees,DateUTC
12:00 AM,64.4,64.4,100,30.15,7.0,Calm,Calm,-,N/A,,Overcast,0,2013-05-20 04:00:00
12:21 AM,64.4,64.4,100,30.15,7.0,Calm,Calm,-,N/A,,Overcast,0,2013-05-20 04:21:00
12:39 AM,64.4,64.4,100,30.14,7.0,Calm,Calm,-,N/A,,Overcast,0,2013-05-20 04:39:00
1:00 AM,64.4,64.4,100,30.13,7.0,NE,3.5,-,N/A,,Overcast,40,2013-05-20 05:00:00
1:21 AM,64.4,64.4,100,30.12,7.0,Calm,Calm,-,N/A,,Overcast,0,2013-05-20 05:21:00
1:39 AM,64.4,64.4,100,30.12,5.0,Calm,Calm,-,N/A,,Overcast,0,2013-05-20 05:39:00
2:00 AM,64.4,64.4,100,30.11,5.0,ENE,3.5,-,N/A,,Overcast,60,2013-05-20 06:00:00
2:21 AM,66.2,64.4,94,30.10,4.0,Calm,Calm,-,N/A,,Overcast,0,2013-05-20 06:21:00
2:39 AM,66.2,64.4,94,30.10,4.0,Calm,Calm,-,N/A,,Overcast,0,2013-05-20 06:39:00
3:00 AM,66.2,64.4,94,30.10,4.0,Calm,Calm,-,N/A,,Overcast,0,2013-05-20 07:00:00
3:21 AM,66.2,64.4,94,30.09,3.0,Calm,Calm,-,N/A,,Overcast,0,2013-05-20 07:21:00
3:39 AM,66.2,64.4,94,30.09,4.0,Calm,Calm,-,N/A,,Overcast,0,2013-05-20 07:39:00
4:21 AM,66.2,66.2,100,30.09,5.0,Calm,Calm,-,N/A,,Overcast,0,2013-05-20 08:21:00
4:39 AM,64.4,64.4,100,30.09,4.0,Calm,Calm,-,N/A,,Overcast,0,2013-05-20 08:39:00
5:00 AM,64.4,64.4,100,30.09,3.0,Calm,Calm,-,N/A,,Overcast,0,2013-05-20 09:00:00
5:21 AM,64.4,64.4,100,30.09,2.5,Calm,Calm,-,N/A,,Overcast,0,2013-05-20 09:21:00
5:36 AM,64.4,64.4,100,30.09,3.0,Calm,Calm,-,N/A,,Overcast,0,2013-05-20 09:36:00
5:50 AM,66.2,66.2,100,30.09,4.0,Calm,Calm,-,N/A,,Overcast,0,2013-05-20 09:50:00
6:45 AM,66.2,66.2,100,30.10,4.0,SSE,3.5,-,N/A,,Overcast,160,2013-05-20 10:45:00
7:45 AM,68.0,68.0,100,30.11,7.0,Calm,Calm,-,N/A,,Overcast,0,2013-05-20 11:45:00
8:55 AM,68.0,66.2,94,30.12,6.0,Calm,Calm,-,N/A,,Overcast,0,2013-05-20 12:55:00
9:45 AM,71.6,66.2,83,30.12,6.0,South,4.6,-,N/A,,Overcast,180,2013-05-20 13:45:00
10:50 AM,71.6,68.0,88,30.12,6.0,ESE,4.6,-,N/A,,Overcast,120,2013-05-20 14:50:00
11:45 AM,73.4,68.0,83,30.10,7.0,SE,6.9,-,N/A,,Overcast,140,2013-05-20 15:45:00
12:45 PM,73.4,68.0,83,30.09,7.0,SE,6.9,-,N/A,,Overcast,130,2013-05-20 16:45:00
1:45 PM,73.4,68.0,83,30.07,7.0,SE,6.9,-,N/A,,Overcast,130,2013-05-20 17:45:00
2:45 PM,75.2,69.8,83,30.06,7.0,SE,6.9,-,N/A,,Overcast,130,2013-05-20 18:45:00
3:54 PM,77.0,69.8,78,30.04,10.0,SE,6.9,-,N/A,,Mostly Cloudy,130,2013-05-20 19:54:00
4:54 PM,78.8,69.8,74,30.02,10.0,SE,6.9,-,N/A,,Scattered Clouds,130,2013-05-20 20:54:00
5:54 PM,77.0,69.8,78,30.01,10.0,SE,6.9,-,N/A,,Scattered Clouds,140,2013-05-20 21:54:00
6:54 PM,77.0,68.0,74,30.01,10.0,SE,5.8,-,N/A,,Partly Cloudy,140,2013-05-20 22:54:00
7:45 PM,75.2,69.8,83,30.01,10.0,SSE,6.9,-,N/A,,Scattered Clouds,150,2013-05-20 23:45:00
10:21 PM,69.8,69.8,100,30.02,10.0,ESE,3.5,-,N/A,,Scattered Clouds,120,2013-05-21 02:21:00
10:42 PM,71.6,69.8,94,30.01,10.0,SE,4.6,-,N/A,,Clear,140,2013-05-21 02:42:00
11:03 PM,71.6,69.8,94,30.01,10.0,SSE,4.6,-,N/A,,Scattered Clouds,160,2013-05-21 03:03:00
11:21 PM,71.6,68.0,88,30.00,10.0,SE,8.1,-,N/A,,Scattered Clouds,140,2013-05-21 03:21:00
11:42 PM,71.6,68.0,88,30.01,10.0,SSE,4.6,-,N/A,,Clear,160,2013-05-21 03:42:00